Skip Page Navigation
NASA JPL Caltech
NASA Logo - Jet Propulsion Laboratory + View the NASA Portal
+ Center for Near-Earth Object Studies
JPL Home Earth Solar System Stars & Galaxies Technology
JPL Solar System Dynamics
BODIES ORBITS EPHEMERIDES TOOLS PHYSICAL DATA DISCOVERY FAQ SITE MAP
IMPORTANT: The SSD Announcement email list is now available. Major changes are coming in the near future, including possible hostname and/or URL changes. To be notified of such changes, subscribe to this email list.

Please visit this page for more details.


JPL Small-Body Database Browser
Search: [ help ]  
97628 (2000 EW133)
Classification: Main-belt Asteroid          SPK-ID: 2097628
Ephemeris | Orbit Diagram | Orbital Elements | Mission Design | Physical Parameters | Discovery Circumstances | Close-Approach Data ]

[ show orbit diagram ]
Orbital Elements at Epoch 2458600.5 (2019-Apr-27.0) TDB
Reference: JPL 18 (heliocentric ecliptic J2000)
 Element Value Uncertainty (1-sigma)   Units 
e .08174410072995242 4.2224e-08  
a 2.289821170399072 1.2132e-08 au
q 2.102641797992393 9.6962e-08 au
i 8.312648177968251 4.5383e-06 deg
node 78.24048260631162 3.5563e-05 deg
peri 166.7160124694067 4.699e-05 deg
M 133.489948967669 3.1418e-05 deg
tp 2458131.204010786576
(2018-Jan-12.70401079)
0.0001098 TDB
period 1265.612560521327
3.47
1.0058e-05
2.754e-08
d
yr
n .2844472401978296 2.2606e-09 deg/d
Q 2.477000542805751 1.3124e-08 au
  Orbit Determination Parameters
   # obs. used (total)      600  
   data-arc span      11878 days (32.52 yr)  
   first obs. used      1986-03-04  
   last obs. used      2018-09-10  
   planetary ephem.      DE431  
   SB-pert. ephem.      SB431-N16  
   condition code      0  
   norm. resid. RMS      .59631  
   source      ORB  
   producer      Otto Matic  
   solution date      2019-Jul-13 09:53:43  

Additional Information
 Earth MOID = 1.08949 au 
 Jupiter MOID = 2.53464 au 
 T_jup = 3.581 
[ show covariance matrix ]

Ephemeris | Orbit Diagram | Orbital Elements | Mission Design | Physical Parameters | Discovery Circumstances | Close-Approach Data ]

Physical Parameter Table
Parameter Symbol Value Units Sigma Reference Notes
absolute magnitude H 16.0   n/a MPO453426  

97628 (2000 EW133)          Discovered 2000-Mar-11 by LONEOS at Anderson Mesa
Reference: 20050224/Numbers.arcLast Updated: 2005-02-28

[ show close-approach data ]
Ephemeris | Orbit Diagram | Orbital Elements | Mission Design | Physical Parameters | Discovery Circumstances | Close-Approach Data ]
ABOUT SSD CREDITS/AWARDS PRIVACY/COPYRIGHT GLOSSARY LINKS
FirstGov 2019-Oct-21 01:41 UT
(server date/time)  
NASA Home Page
Site Manager:   Ryan S. Park
Webmaster  Alan B. Chamberlin